Location: Ahausen
(50.4985°N, 8.2722°E)
Time: 03:30:48
(UTC+00:00)

Cosmos 2082 Rocket - Pass Details

Date: 18 September 2020
Orbit: 834 x 853 km, 71.0° (Epoch: 22 October)

Event Time Altitude Azimuth Distance (km) Brightness Sun altitude
Rises 22:22:59 0° 324° (NW) 3,393 6.2 -36.6°
Reaches altitude 10° 22:25:39 10° 315° (NW) 2,455 5.2 -36.8°
Enters shadow 22:28:03 22° 296° (WNW) 1,752 4.1 -36.9°
